{"data":{"norad_id":68075,"epoch":"2026-09-19T18:23:45.447936Z","epoch_age_seconds":118820,"freshness":"FRESH","line1":"1 68075U 26042G   26262.76649824  .00017928  00000+0  54005-3 0  9997","line2":"2 68075  53.1608 353.4026 0001405  63.5517 296.5630 15.34424387 32075","mean_motion":15.34424387,"eccentricity":0.0001405,"inclination_deg":53.1608,"raan_deg":353.4026,"arg_perigee_deg":63.5517,"mean_anomaly_deg":296.563,"bstar":0.00054005,"rev_number":3207,"period_min":93.846266534866,"perigee_km":461.6696299938,"apogee_km":463.59188573376,"semimajor_km":6840.7677578638,"source":"CELESTRAK","updated_at":"2026-09-20T09:00:43.778257Z"}}